Погода в Красной Горке

Россия / Пензенская область     52°33′41″N   44°31′17″E
темп.,
°C
ветер,
м/с
пор.,
м/с
влажн.,
%
обл.,
%
осадки,
мм/ч
давл.,
гПа
погр.,
м
28 ноября, вс
вс2800:000ююв91992100 0.3 1014627
03:00+1ю71696100 1.3 1012579
06:00+1ю71398100 1.0 1012465
09:00+1ююв612100100 2.6 1012378
12:00+1ююв49100100 0.7 1012267
15:00+2ю38100100 0.8 1013184
18:00+2ююв35100100 0.1 101498
21:00+2ююв35100100 0.1 101588
29 ноября, пн
пн2900:00+2юв36100100 0.1 101588
03:00+2юв4910099 0.1 1015170
06:00+2юв49100100 0.0 1014166
09:00+3юв61399100 0.2 1013351
12:00+4юв81898100 3.6 1009459
15:00+5ююв91894100 6.9 1007677
18:00+6ю81794100 0.9 1006489
21:00+6ююв81694100 0.9 1005466
30 ноября, вт
вт3000:00+7ююв112293100 2.4 1000906
03:00+8ю132591100 6.4 995986
06:00+9ю122288100 1.0 9911018
09:00+9ю132388100 1.6 9891262
12:00+9юз12227011 3.3 9901388
15:00+6юз1221675 3.3 9921258
18:00+4юз12206825 0.0 994969
21:00+2юз8167321 0.0 996812
1 декабря, ср
ср100:00+1юз6128096 0.0 996530
03:000ююз4885100 0.0 995345
06:000ююз3789100 0.1 995436
09:000зсз3595100 0.8 993310
12:00−1зсз699385 2.6 992659
15:00−1з6108297 2.6 995728
18:00−2зюз6107798 0.1 9971054
21:00−3зюз6127924 0.1 998711
2 декабря, чт
чт200:00−3юз6128648 0.0 1000578
03:00−3юз61293100 0.0 1001610
06:00−2зюз61192100 0.1 1002936
09:00−2зюз711765 0.3 1005889
12:00−2зюз6117679 0.0 1006756
15:00−2юз61078100 0.0 1007664
18:00−1ююз7149295 0.1 1007634
21:00+1юз81697100 0.4 1007742